Regional Weather Roundup
Issued by NWS

Current Version | Previous Version | Text Only | Print | Product List | Glossary On
Versions: 1 2 3 4 5 6 7 8 9 10 11 12 13 14 15 16 17 18 19 20 21 22 23 24 25 26 27 28 29 30 31 32 33 34 35 36 37 38 39 40 41 42 43 44 45 46 47 48 49 50
000
ASCA44 KEWX 302020
RWRMX

LATIN AMERICA AND CARIBBEAN REGIONAL WEATHER ROUNDUP
NATIONAL WEATHER SERVICE AUSTIN/SAN ANTONIO TX
300 PM CDT SAT JUL 30 2016

NOTE: "FAIR" INDICATED FEW OR NO CLOUDS BELOW 12,000 FEET WITH NO
SIGNIFICANT WEATHER AND/OR OBSTRUCTIONS TO VISIBILITY.

BAJA CALIFORNIA

CITY           SKY/WX    TMP DP  RH WIND       PRES   REMARKS
LORETO         PTSUNNY   86  70  58 SE9       29.83F HX  90
LA PAZ         PTSUNNY   93  59  31 S6        29.87  HX  92
MEXICALI       MOSUNNY   95  66  38 S15       29.82  HX  98
S.J. DEL CABO  MOSUNNY   93  59  31 E9        29.88F HX  92
TIJUANA        SUNNY     79  61  53 N7        29.91R

NORTHWESTERN MEXICO

CITY           SKY/WX    TMP DP  RH WIND       PRES   REMARKS
CULIACAN       PTSUNNY   86  68  54 NE6       29.90
DURANGO        PTSUNNY   75  55  50 NE3       30.21F
GUAYMAS        PTSUNNY   90  79  70 CALM      29.83  HX 105
HERMOSILLO     PTSUNNY   91  73  55 SE9       29.91  HX 100
CD. JUAREZ     MOSUNNY   91  64  40 SE9       29.98  HX  93
LOS MOCHIS     CLOUDY    81  73  78 SE9       29.90F
OBREGON        PTSUNNY   86  72  62 S9        29.87  HX  92

NORTHEASTERN MEXICO

CITY           SKY/WX    TMP DP  RH WIND       PRES   REMARKS
CHIHUAHUA      PTSUNNY   81  57  44 SE5       30.11
MATAMOROS      MOSUNNY   95  72  46 SE14      29.97  HX 103
MONCLOVA       PTSUNNY   84  70  61 E13       29.94
MONTERREY      PTSUNNY   93  59  31 SE9       29.96F HX  92
NUEVO LAREDO   MOSUNNY   95  68  41 S5        29.94  HX  99
PIEDRAS NEGRAS MOSUNNY   95  70  43 SE7       29.98F HX 101
REYNOSA        PTSUNNY   95  61  31 SE12G23   29.94  HX  95
SALTILLO       PTSUNNY   90  63  40 N18       30.18F HX  90
TORREON        PTSUNNY   84  63  48 E5        30.07F
CD. VICTORIA   MOSUNNY   93  64  38 SE15      29.97  HX  95

WESTERN MEXICO

CITY           SKY/WX    TMP DP  RH WIND       PRES   REMARKS
AGUASCALIENTES PTSUNNY   72  57  60 S5        30.25
COLIMA         MOSUNNY   86  72  62 CALM      29.97F HX  92
DEL BAJIO      PTSUNNY   75  55  50 S5        30.27F
GUADALAJARA    MOSUNNY   77  59  53 SE5       30.15
MANZANILLO     MOSUNNY   88  75  66 W14       29.80F HX  97
MAZATLAN       SUNNY     90  77  66 W7        29.85F HX 102
P. VALLARTA    MOSUNNY   88  81  79 SW12      29.85F HX 105
URUAPAN        PTSUNNY   73  64  73 SE8       30.17S
ZACATECAS      PTSUNNY   73  52  46 E6        30.28F

CENTRAL MEXICO

CITY           SKY/WX    TMP DP  RH WIND       PRES   REMARKS
CUERNAVACA     PTSUNNY   79  59  50 CALM      30.10F
MEXICO CITY    PTSUNNY   70  50  49 NE15      30.31F
MORELIA        PTSUNNY   75  59  57 S3        30.21
POZA RICA      CLOUDY    77  75  94 W5        30.04F
PUEBLA         PTSUNNY   73  48  40 E2        30.29F
QUERETARO      PTSUNNY   75  54  46 E8        30.28F
S. LUIS POTOSI PTSUNNY   75  46  35 E23       30.25F
TAMPICO        PTSUNNY   86  73  66 E7        29.98F HX  93
TOLUCA         PTSUNNY   72  50  46 E14       30.37F

SOUTHERN MEXICO

CITY           SKY/WX    TMP DP  RH WIND       PRES   REMARKS
ACAPULCO       SUNNY     88  77  70 S6        29.85F HX 100
B. DE HUATULCO CLOUDY    86  73  66 S7        29.93  HX  93
OAXACA         CLOUDY    77  52  41 N6        30.18F
P. ESCONDIDO   MOSUNNY   84  75  74 S8        29.97F HX  92
VERACRUZ       PTSUNNY   82  75  78 N8        29.96F
ZIHUATANEJO    MOSUNNY   90  75  62 SW6       29.85F HX 100

YUCATAN PENINSULA

CITY           SKY/WX    TMP DP  RH WIND       PRES   REMARKS
CAMPECHE       MOSUNNY   93  73  52 E17       29.93F HX 102
CANCUN         MOSUNNY   90  73  58 NE10      29.99F HX  98
CHETUMAL       MOSUNNY   90  73  58 E14       29.96  HX  98
CD. DEL CARMEN MOSUNNY   90  72  55 E8        29.93  HX  96
COZUMEL        MOSUNNY   86  75  70 NE13      29.99F HX  95
MERIDA         MOSUNNY   95  72  46 N10       29.97R HX 103
MINATITLAN     PTSUNNY   86  68  54 N12       29.86
TAPACHULA      PTSUNNY   90  75  62 W12       29.82F HX 100
TUX. GUTIERREZ MOSUNNY   86  68  54 W17       29.90F
VILLAHERMOSA   MOSUNNY   93  73  52 E8        29.92F HX 102

CENTRAL AMERICA

CITY           SKY/WX    TMP DP  RH WIND       PRES   REMARKS
BELIZE CITY    MOSUNNY   90  79  70 E10       29.97F HX 105
MANAGUA        PTCLDY    93  68  43 E18       29.77F HX  97

CARIBBEAN

CITY           SKY/WX    TMP DP  RH WIND       PRES   REMARKS
ARUBA          MOSUNNY   88  77  70 E22       29.80F HX 100
CURACAO        MOSUNNY   88  77  70 E13       29.83F HX 100
KINGSTON       MOSUNNY   91  73  55 SE20      29.92S HX 100
NASSAU         TSTM      79  72  78 SE3       30.08
SAN JUAN       LGT RAIN  86  75  70 NE17      29.97F HX  95
SANTO DOMINGO  PTSUNNY   88  73  62 SE6       29.92F HX  96
ST. CROIX      MOSUNNY   84  77  79 NE12      29.95F HX  94
ST. KITTS      LGT RAIN  84  79  84 NE16      29.92S HX  96
ST. MAARTEN    MOSUNNY   84  77  79 E16G29    29.92F HX  94

$$




USA.gov is the U.S. government's official web portal to all federal, state and local government web resources and services.